STARLINK-5761 (55599 NORAD) Tracking and Keplerian Element Data

This shows tracking and keplerian element data for the satellite.

Feedback or suggestion? Click here.




ElementValue
Catalog55599
NameSTARLINK-5761
Epoch Orbit130
Epoch Day84.91667824
Epoch Year2023
RAAN105.0993
Inclination42.9995
Eccentricity0.0001278
Argument of Perigee266.9886
Mean Anonmoly324.0059
Mean Motion15.51540516
Decay Rate-0.00859162
L11 55599U 23020AG 23084.91667824 -.00859162 00000+0 -15513-1 0 9998
L22 55599 42.9995 105.0993 0001278 266.9886 324.0059 15.51540516 1303



Live tracking and technical data element details for STARLINK-5761 (NORAD 55599). STARLINK-5761 can be tracked NOW for your location showing map with azimuth and elevation plus other details from your city location.







IsCatalogInMostPopularTable: catalog: 55599, numindb: -1

Insert: records affected: 1


GetName: 55599 STARLINK-5761

Hit Count: inserted at: Tue, 28 Mar 2023 02:00:38 GMT